#timestamp,LO_Frequency,Hit,StdDev 
1663646415.4,286046999.9,N
1663646435.3,286047002.4,N
1663646455.1,286047000.3,N
1663646456.0,286047000.3,N
1663646475.8,286046999.8,N
1663646495.7,286046998.4,N
1663646515.5,286046998.3,N
1663646535.3,286047011.9,Y
1663646555.2,286046996.9,P
1663646575.0,286047000.9,N
1663646575.9,286047000.9,N
1663646595.8,286047002.7,N
1663646615.6,286047002.3,N
1663646635.4,286047001.1,N
1663646655.3,286046998.4,N
1663646675.1,286046998.4,N
1663646695.8,286046998.7,N
1663646715.7,286047000.8,N
1663646735.5,286046999.8,N
1663646755.4,286047002.8,N
1663646775.2,286047002.3,N
1663646795.0,286047000.4,N
1663646795.9,286047000.4,N
1663646815.8,286047002.8,N
1663646835.6,286047002.2,N
1663646855.5,286047002.3,N
1663646875.3,286047000.1,N
1663646895.1,286047002.2,N
1663646915.9,286046999.9,N
1663646935.6,286047000.9,N
1663646955.5,286047002.0,N
1663646975.3,286047002.4,N
1663646995.1,286047000.8,N
1663647015.9,286047001.0,N
1663647035.7,286047002.3,N
1663647055.5,286047004.4,N
1663647075.4,286047003.9,N
1663647095.2,286047003.9,N
1663647115.1,286047001.4,N
1663647116.0,286047001.4,N
1663647135.8,286047001.7,N
1663647155.6,286046999.8,N
1663647175.5,286047002.5,N
1663647195.3,286047004.1,N
1663647215.1,286047003.8,N
1663647235.9,286047005.6,Y
1663647255.7,286047001.5,P
1663647275.6,286047000.3,P
1663647295.4,286047002.0,P
1663647315.2,286047003.1,Y
1663647335.1,286047001.4,P
1663647336.0,286047001.4,P
1663647355.8,286047001.9,P
1663647375.7,286047004.3,Y
1663647395.5,286046998.7,P
1663647415.3,286046998.9,N
1663647435.2,286047000.5,N
1663647455.0,286046999.8,N
1663647455.9,286046999.8,N
1663647475.8,286047002.8,N
1663647495.6,286047000.7,N
1663647515.4,286047002.2,N
1663647535.3,286047000.8,N
1663647555.1,286046997.2,N
1663647575.8,286046997.5,N
1663647595.7,286046996.9,N
1663647615.5,286046998.8,N
1663647635.4,286046998.6,N
1663647655.2,286046998.1,N
1663647675.0,286047000.8,N
1663647675.9,286047000.8,N
1663647695.8,286046999.5,N
1663647715.6,286046997.8,N
1663647735.5,286046995.3,N
1663647755.3,286046995.4,N
1663647775.1,286046995.6,N
1663647795.9,286046996.1,N
1663647815.7,286046997.2,N
1663647835.5,286046995.3,N
1663647855.4,286046996.8,N
1663647875.2,286046996.8,N
1663647895.1,286046996.6,N
1663647896.0,286046996.6,N
1663647915.8,286047000.4,N
1663647935.6,286047000.0,N
1663647955.5,286047000.3,N
1663647975.3,286046998.7,N
1663647995.1,286046998.3,N
1663648015.9,286046996.9,N
1663648035.7,286046995.1,N
1663648055.6,286046996.0,N
1663648075.4,286046997.7,N
1663648095.2,286046996.8,N
1663648115.1,286046996.7,N
1663648116.0,286046996.7,N
1663648135.8,286046999.5,N
1663648155.7,286046996.7,N
1663648175.5,286046999.2,N
1663648195.3,286046997.0,N
1663648215.2,286046999.6,N
1663648235.0,286046996.5,N
1663648235.9,286046996.5,N
1663648255.7,286046999.5,N
1663648275.6,286046996.8,N
1663648295.4,286046996.8,N
1663648315.3,286046999.1,N
1663648335.1,286047001.2,N
1663648336.0,286047001.2,N
1663648355.8,286046999.8,N
1663648375.7,286046998.1,N
1663648395.5,286046997.1,N
1663648415.3,286046997.3,N
1663648435.2,286046997.8,N
1663648455.0,286046997.2,N
1663648455.9,286046997.2,N
1663648475.8,286046999.1,N
1663648495.6,286046997.1,N
1663648515.4,286046997.3,N
1663648535.3,286046998.0,N
1663648555.1,286046996.1,N
1663648575.9,286046993.9,Y
1663648595.7,286046997.5,P
1663648615.5,286046996.6,P
1663648635.4,286046997.0,P
1663648655.2,286046999.6,N
1663648675.1,286046998.9,N
1663648676.0,286046998.9,N
1663648695.8,286047000.8,N
1663648715.6,286046999.0,N
1663648735.5,286047001.1,N
1663648755.3,286047001.0,N
1663648775.2,286047002.3,N
1663648795.9,286047002.6,N
1663648815.7,286047002.0,N
1663648835.6,286047002.4,N
1663648855.4,286047004.4,N
1663648875.3,286047004.0,N
1663648895.1,286047002.3,N
1663648896.0,286047002.3,N
1663648915.8,286047000.2,N
1663648935.7,286047002.3,N
1663648955.5,286047002.5,N
1663648975.3,286047001.9,N
1663648995.2,286047003.6,N
1663649015.0,286047003.4,N
1663649015.9,286047003.4,N
1663649035.8,286047002.4,N
1663649055.6,286047000.0,N
1663649075.4,286047000.3,N
1663649095.3,286047001.9,N
1663649115.1,286047001.8,N
1663649135.9,286047001.9,N
1663649155.7,286046998.3,N
1663649175.5,286047001.0,N
1663649195.4,286047000.9,N
1663649215.2,286047000.5,N
1663649235.0,286047000.4,N
1663649235.9,286047000.4,N
1663649255.8,286047002.4,N
1663649275.6,286047002.5,N
1663649295.5,286047002.1,N
1663649315.3,286047000.6,N
1663649335.1,286047002.3,N
1663649355.9,286047001.3,N
1663649375.7,286047004.3,Y
1663649395.5,286047002.0,P
1663649415.4,286047002.4,P
1663649435.2,286047001.7,P
1663649455.1,286047001.7,Y
1663649456.0,286047001.7,P
1663649475.8,286047000.2,N
1663649495.6,286046998.6,N
1663649515.5,286046998.6,N
1663649535.3,286046998.1,N
1663649555.2,286046998.6,N
1663649575.9,286047001.2,N
1663649595.7,286047000.5,N
1663649615.6,286047002.2,N
1663649635.4,286046999.8,N
1663649655.2,286047001.5,N
1663649675.1,286047001.6,N
1663649676.0,286047001.6,N
1663649695.8,286047000.2,N
1663649715.7,286046999.3,N
1663649735.5,286046999.1,N
1663649755.3,286046999.1,N
1663649775.2,286046998.2,N
1663649795.0,286046998.4,N
1663649795.9,286046998.4,N
1663649815.8,286046998.4,N
1663649835.6,286046999.0,N
1663649855.4,286047000.9,N
1663649875.3,286047000.6,N
1663649895.1,286047004.3,Y
1663649915.8,286047004.2,P
1663649935.7,286047003.5,N
1663649955.5,286047004.1,N
1663649975.4,286047003.9,N
1663649995.2,286047003.6,N
